Wind_Speed
24 23 23 22 21 23 25 23 28 20 24 17 21 24 21 20 22 23 24 25 27 28 27 26 33 38 40 38 36 38 39 40 40 39 40 40 40 42 44 44 48 51 53 55
30 27 25 26 20 23 23 24 23 23 21 19 22 23 25 22 22 23 26 27 29 30 31 30 30 33 34 33 33 34 36 38 39 38 39 40 41 43 45 48 50 51 54 58
32 29 29 28 18 17 20 23 23 22 16 17 19 20 20 20 23 24 26 28 28 29 30 32 32 33 36 36 37 36 36 37 36 38 39 41 43 46 48 50 54 56 59 61
35 32 40 22 19 22 23 20 21 21 20 21 21 21 20 23 24 25 27 27 28 29 30 31 32 33 33 34 36 37 37 37 38 39 41 44 46 50 53 55 58 59 60 62
40 36 33 27 19 18 22 22 21 23 25 25 23 24 22 25 25 26 26 25 26 27 27 27 28 29 32 34 35 36 36 37 39 42 44 47 49 52 56 58 59 60 62 63
40 40 39 24 19 21 26 23 18 27 27 27 26 26 25 26 25 26 27 27 27 27 27 28 29 30 31 32 34 35 37 40 42 44 47 50 53 56 58 59 61 62 63 64
40 41 39 28 26 23 30 16 27 32 29 28 28 28 28 27 28 26 27 28 28 28 29 30 30 30 32 34 36 38 40 43 45 48 51 54 57 59 60 61 61 62 64 67
44 45 43 27 30 30 23 27 28 29 30 32 32 31 29 28 29 28 28 30 31 32 31 31 32 34 36 38 39 41 44 46 49 53 55 58 60 61 61 62 63 65 66 66
38 41 38 34 33 31 28 28 28 30 31 32 30 30 28 28 29 30 29 30 31 31 32 34 35 37 39 41 43 46 49 52 54 56 58 60 61 62 63 64 66 66 66 70
37 35 35 35 33 30 31 32 31 30 34 37 34 33 31 30 29 30 30 30 31 34 35 36 38 40 42 44 47 50 54 56 57 59 61 62 62 63 65 66 66 67 71 76
41 37 35 36 31 32 38 33 36 39 42 39 35 35 34 32 30 31 31 33 35 37 39 41 42 43 46 49 53 56 57 58 60 62 63 63 64 65 65 65 68 73 77 82
45 40 39 39 30 31 35 33 33 37 42 37 38 39 36 32 32 33 35 37 39 41 43 44 47 49 53 56 57 57 59 61 62 62 63 65 65 65 66 71 75 79 84 85
33 36 39 39 38 36 35 33 34 31 27 33 40 41 36 34 35 37 40 44 47 47 48 50 53 55 58 59 60 61 62 62 62 64 65 65 66 69 73 76 81 84 83 81
34 35 37 39 42 41 37 36 35 33 34 36 40 42 39 37 38 42 45 48 49 50 53 54 55 57 57 58 61 62 62 63 66 66 65 67 70 74 78 82 83 81 81 81
32 35 35 37 41 38 37 38 38 38 37 37 40 41 42 41 43 44 46 48 52 56 58 57 52 55 59 59 59 61 65 64 65 66 68 72 76 79 82 82 81 81 82 84
33 38 37 37 36 40 38 37 37 39 40 42 44 43 43 45 48 51 49 52 59 61 54 51 55 57 56 58 61 64 65 64 66 70 73 77 81 82 81 81 82 83 83 81
36 37 38 38 39 41 41 38 43 46 48 45 47 49 53 52 53 54 53 56 57 48 50 54 53 55 58 62 63 63 65 68 71 75 78 82 81 81 82 82 83 82 78 73
38 40 36 35 33 33 34 36 38 42 49 51 54 50 43 40 45 49 56 47 48 56 54 55 57 60 61 62 64 66 70 73 77 80 81 81 82 82 82 82 80 75 71 71
34 36 37 37 37 35 40 39 43 45 51 55 54 48 53 55 56 48 53 54 55 56 58 59 61 61 63 66 69 73 77 79 80 81 81 82 82 82 81 77 72 70 71 72
33 38 40 39 38 37 34 39 39 41 45 45 45 47 49 51 49 50 55 56 57 59 61 63 65 66 69 73 77 79 80 81 81 82 83 83 82 79 74 71 71 72 74 76
30 34 35 31 31 34 34 36 39 37 37 38 41 45 52 52 55 53 55 59 61 63 65 67 70 73 76 79 80 81 82 82 84 84 83 80 76 73 72 73 74 76 77 78
27 29 30 31 32 32 33 34 35 35 39 43 45 48 49 51 54 57 60 63 65 67 70 73 76 79 81 82 83 83 85 85 85 82 79 76 76 75 76 77 78 79 79 77
25 27 28 30 31 33 35 37 39 42 44 45 46 48 51 55 58 61 63 66 69 73 76 78 80 81 82 84 85 86 86 84 82 80 80 79 79 79 79 80 79 78 75 73
25 27 30 32 33 35 37 38 40 42 44 47 51 54 57 59 62 65 69 72 75 78 80 81 82 83 84 85 86 86 85 84 83 83 83 82 82 82 81 79 77 74 72 69
31 32 33 33 34 37 39 41 44 47 50 53 56 58 61 64 68 71 75 77 79 80 81 83 84 86 88 88 88 87 87 86 86 86 85 84 83 81 79 76 74 71 66 61
32 34 36 38 40 42 45 48 51 53 56 58 61 64 68 72 75 77 78 79 80 82 85 87 89 89 90 90 90 90 89 89 87 86 85 83 81 78 75 71 66 60 55 51
35 38 41 43 46 49 51 53 56 58 61 65 69 72 74 75 75 76 78 81 84 86 88 88 89 89 90 91 91 90 89 88 85 83 81 77 73 69 64 59 55 51 47 43
Wind_Direction
229 228 236 241 250 255 258 266 263 271 273 275 269 263 255 264 268 274 279 283 284 281 276 270 266 266 265 266 265 267 270 273 277 280 282 283 285 288 288 287 285 287 290 292
230 228 236 244 249 255 264 261 266 265 271 271 257 251 256 259 263 271 275 279 279 279 276 274 271 273 274 272 270 269 272 276 278 281 283 286 287 288 289 293 297 297 296 295
232 230 235 239 250 258 253 246 251 261 266 259 262 259 265 273 277 275 277 280 280 279 276 273 271 270 271 275 274 275 278 281 282 284 287 290 293 296 298 298 296 295 295 295
237 233 239 240 243 254 261 257 258 259 263 260 263 267 269 277 280 282 284 284 280 279 277 273 271 270 271 273 277 280 282 284 287 290 293 295 297 297 297 297 296 296 296 297
240 243 251 247 239 255 261 256 261 261 252 257 262 268 275 276 278 281 286 284 279 277 274 271 271 273 274 276 278 279 284 288 290 291 292 293 294 295 295 296 297 297 297 298
240 244 248 246 244 243 253 261 258 256 257 260 263 266 267 273 277 279 281 282 280 278 277 276 274 274 275 277 280 283 285 286 288 290 293 295 296 297 298 299 299 299 298 299
241 248 251 250 253 254 256 278 253 250 261 262 263 267 269 271 274 274 275 276 277 275 273 272 272 275 278 279 281 283 286 289 292 293 295 297 297 298 299 298 299 299 298 298
241 245 248 253 262 267 270 265 265 264 264 261 259 265 270 275 276 274 272 274 274 274 272 270 273 277 280 283 286 288 291 293 296 297 297 298 298 299 299 299 299 299 299 300
244 249 248 249 257 261 265 263 264 263 263 264 264 268 272 277 280 279 276 275 276 274 275 278 281 284 286 288 291 294 296 297 297 297 298 298 298 299 299 299 299 300 300 303
247 245 243 248 257 255 261 265 266 271 269 264 268 271 275 277 277 277 277 278 279 280 283 284 284 285 287 290 292 294 295 296 297 298 299 299 299 299 300 300 300 301 303 306
244 241 242 252 262 246 255 264 264 266 271 271 269 269 270 271 273 276 277 277 279 281 282 283 284 287 290 291 292 294 295 297 299 299 299 299 299 300 300 302 303 305 307 308
254 255 256 251 252 250 262 269 266 281 274 267 267 273 270 269 271 275 278 281 282 282 283 286 287 289 290 292 294 296 297 297 298 298 299 300 301 302 304 306 307 307 307 306
248 250 255 257 256 259 257 264 264 275 269 268 268 270 267 268 270 274 278 281 283 283 284 286 289 291 293 294 294 295 297 299 300 301 301 303 304 305 306 306 306 306 306 308
249 252 254 258 264 261 259 257 266 268 266 270 274 275 274 275 280 284 286 286 287 286 285 286 288 291 293 294 296 297 299 299 300 301 302 303 303 304 304 305 305 307 308 309
249 253 256 258 259 257 257 260 264 266 268 270 273 274 279 279 281 286 288 290 291 288 285 286 288 292 292 293 295 297 297 299 301 302 302 302 303 303 303 304 307 308 309 309
250 252 255 264 265 261 264 265 267 271 272 272 273 275 282 284 281 285 286 284 288 287 281 281 288 289 291 293 295 297 299 300 301 301 302 302 302 303 305 307 307 308 308 309
250 253 257 261 263 265 260 262 270 275 276 273 276 274 279 283 285 286 280 279 275 270 278 284 285 288 292 295 297 298 299 300 301 301 300 301 303 305 306 306 307 308 307 307
258 257 262 264 255 258 258 265 277 276 270 269 271 271 269 274 273 279 278 272 276 293 293 290 292 295 297 298 298 299 299 300 299 300 302 303 304 305 305 306 307 306 306 307
263 262 264 261 268 269 280 273 264 266 261 257 262 262 269 273 280 279 275 279 290 289 291 294 296 297 298 299 299 298 298 300 301 302 303 304 304 305 306 306 305 305 306 307
265 263 262 267 271 268 255 253 263 262 264 272 277 281 277 280 281 278 284 287 288 291 294 295 296 298 298 297 297 299 300 301 302 303 303 304 305 306 305 305 305 305 306 307
258 261 262 265 267 266 267 263 271 272 272 275 278 281 282 283 288 288 286 288 291 293 294 295 296 296 296 297 299 300 301 302 302 303 303 304 305 305 305 304 304 305 307 308
264 265 265 265 265 267 269 271 272 274 279 279 279 282 284 284 285 287 289 290 292 293 293 295 296 297 298 299 300 301 301 301 301 302 303 304 304 304 303 304 305 306 307 308
264 268 270 273 274 273 271 273 277 278 279 280 283 285 286 287 289 290 291 291 293 294 295 296 297 299 300 300 300 300 300 300 300 302 302 302 302 303 304 305 306 307 308 308
275 276 279 278 277 278 278 278 279 280 282 283 285 287 289 291 291 292 292 292 293 294 297 299 299 299 299 298 297 297 299 300 301 301 302 302 303 303 304 305 306 306 306 307
275 275 274 274 275 277 279 281 283 286 288 290 290 290 291 291 291 291 293 296 298 298 299 299 298 298 298 298 299 299 299 299 299 299 300 300 301 302 303 304 304 305 306 306
273 274 275 279 282 284 287 288 289 290 291 291 291 291 291 292 294 296 298 299 300 299 298 298 298 298 298 298 298 297 297 297 298 298 299 300 300 301 302 303 303 303 304 304
278 281 283 284 285 287 288 289 289 290 291 292 293 294 296 298 299 300 300 299 298 297 298 298 298 297 297 297 296 296 297 297 297 298 298 299 299 300 300 301 301 301 301 302
Height
5707 5709 5710 5712 5714 5714 5714 5716 5715 5719 5717 5721 5719 5719 5719 5718 5718 5718 5718 5718 5717 5715 5715 5714 5713 5711 5711 5711 5711 5709 5707 5705 5703 5700 5697 5694 5690 5687 5683 5679 5674 5669 5663 5656
5700 5703 5704 5704 5709 5707 5709 5709 5710 5711 5711 5712 5711 5711 5712 5712 5712 5711 5711 5710 5709 5708 5707 5706 5705 5703 5702 5701 5700 5698 5697 5695 5693 5689 5686 5683 5680 5675 5671 5665 5660 5654 5648 5642
5693 5696 5696 5698 5703 5703 5703 5703 5705 5704 5706 5705 5706 5706 5706 5706 5705 5704 5703 5702 5701 5700 5699 5698 5696 5695 5694 5692 5690 5689 5687 5684 5681 5678 5675 5672 5667 5662 5657 5652 5647 5641 5635 5627
5684 5688 5683 5697 5697 5697 5696 5697 5697 5697 5698 5698 5699 5699 5698 5698 5696 5696 5695 5694 5692 5690 5689 5688 5687 5686 5685 5683 5681 5678 5676 5673 5670 5667 5663 5658 5654 5649 5644 5639 5633 5627 5619 5612
5673 5678 5683 5687 5692 5692 5689 5691 5692 5690 5690 5691 5692 5691 5691 5689 5688 5688 5687 5686 5684 5682 5680 5678 5677 5676 5675 5673 5671 5668 5666 5663 5659 5655 5652 5648 5643 5638 5632 5625 5618 5611 5603 5596
5665 5668 5670 5682 5685 5685 5683 5684 5687 5681 5682 5683 5684 5683 5682 5681 5680 5679 5678 5677 5675 5673 5672 5670 5668 5666 5665 5663 5661 5659 5656 5653 5649 5645 5640 5635 5629 5623 5616 5609 5602 5595 5587 5580
5659 5660 5664 5673 5676 5678 5675 5684 5675 5674 5675 5675 5675 5675 5673 5672 5671 5669 5668 5667 5666 5664 5662 5661 5659 5658 5656 5653 5651 5648 5645 5641 5637 5632 5627 5621 5614 5608 5602 5594 5587 5580 5573 5565
5652 5653 5654 5668 5667 5669 5671 5668 5668 5667 5667 5666 5666 5665 5664 5663 5662 5660 5659 5658 5657 5655 5653 5652 5650 5649 5646 5644 5641 5638 5634 5629 5624 5618 5613 5606 5600 5593 5586 5579 5572 5564 5557 5548
5646 5647 5652 5655 5657 5659 5659 5658 5658 5658 5658 5657 5658 5657 5656 5655 5653 5652 5650 5649 5648 5647 5645 5643 5641 5639 5636 5633 5629 5625 5621 5616 5611 5605 5598 5591 5584 5577 5571 5564 5556 5548 5540 5531
5636 5640 5644 5645 5647 5650 5649 5649 5650 5650 5649 5648 5648 5648 5647 5645 5644 5642 5641 5640 5638 5637 5636 5633 5630 5627 5624 5620 5616 5611 5606 5601 5595 5588 5582 5575 5568 5560 5554 5546 5538 5531 5523 5513
5626 5631 5635 5636 5637 5639 5638 5639 5640 5640 5638 5638 5639 5638 5636 5635 5634 5633 5632 5630 5628 5626 5624 5621 5618 5615 5611 5607 5602 5596 5591 5585 5579 5572 5565 5558 5551 5543 5535 5529 5520 5512 5504 5494
5620 5623 5622 5625 5628 5630 5630 5631 5630 5630 5626 5629 5628 5627 5626 5625 5624 5623 5622 5620 5618 5615 5612 5609 5605 5602 5597 5592 5587 5581 5575 5569 5562 5555 5548 5541 5533 5526 5518 5508 5501 5492 5484 5474
5610 5613 5614 5616 5618 5620 5620 5620 5620 5620 5618 5618 5618 5617 5616 5615 5614 5613 5611 5609 5605 5602 5599 5596 5592 5587 5582 5577 5572 5566 5559 5553 5546 5539 5531 5523 5515 5507 5498 5492 5482 5472 5462 5452
5601 5604 5606 5608 5607 5608 5609 5610 5610 5610 5609 5608 5608 5607 5606 5604 5603 5601 5598 5595 5592 5589 5585 5581 5576 5572 5566 5560 5555 5549 5542 5536 5529 5522 5514 5507 5499 5491 5482 5472 5461 5451 5442 5432
5592 5594 5595 5596 5596 5597 5598 5599 5599 5600 5599 5598 5597 5596 5594 5593 5591 5588 5584 5581 5577 5573 5569 5565 5560 5555 5550 5545 5539 5533 5527 5519 5512 5505 5498 5490 5481 5472 5463 5452 5442 5431 5420 5410
5581 5582 5584 5585 5586 5588 5589 5589 5590 5589 5588 5587 5586 5584 5582 5580 5577 5575 5570 5566 5562 5557 5554 5550 5545 5540 5534 5528 5522 5516 5510 5502 5494 5488 5480 5471 5463 5453 5442 5432 5421 5411 5400 5390
5571 5573 5574 5575 5576 5577 5579 5579 5579 5578 5576 5574 5573 5571 5569 5566 5562 5559 5556 5551 5548 5543 5539 5534 5528 5523 5517 5511 5505 5498 5492 5484 5476 5469 5460 5452 5442 5432 5422 5411 5401 5390 5379 5370
5562 5563 5564 5566 5566 5568 5568 5567 5567 5566 5565 5562 5561 5558 5556 5552 5550 5547 5543 5538 5533 5528 5523 5518 5512 5506 5499 5492 5486 5480 5473 5465 5457 5448 5439 5429 5420 5410 5401 5390 5380 5371 5361 5351
5553 5554 5555 5556 5557 5557 5556 5554 5553 5552 5552 5550 5548 5546 5544 5541 5537 5532 5528 5524 5518 5513 5507 5501 5495 5488 5481 5474 5468 5461 5453 5444 5435 5426 5417 5408 5398 5389 5379 5370 5361 5352 5342 5333
5545 5545 5545 5545 5545 5546 5546 5544 5541 5541 5539 5537 5535 5533 5530 5526 5522 5519 5515 5509 5504 5498 5491 5485 5478 5470 5463 5456 5449 5440 5431 5422 5413 5404 5395 5385 5376 5367 5358 5349 5341 5332 5322 5312
5535 5535 5535 5535 5535 5535 5534 5533 5531 5530 5528 5526 5523 5520 5517 5513 5509 5504 5500 5494 5488 5481 5474 5467 5460 5452 5444 5436 5428 5419 5409 5400 5390 5381 5372 5363 5354 5346 5338 5329 5320 5311 5302 5292
5525 5526 5526 5526 5525 5524 5522 5521 5520 5518 5516 5513 5510 5507 5504 5499 5495 5489 5483 5478 5470 5464 5457 5450 5441 5432 5423 5414 5405 5396 5387 5377 5368 5359 5350 5342 5334 5326 5317 5308 5299 5290 5281 5271
5517 5516 5516 5516 5514 5513 5512 5510 5509 5507 5504 5501 5498 5494 5489 5484 5479 5473 5467 5460 5453 5445 5437 5429 5420 5410 5400 5391 5381 5372 5363 5354 5346 5337 5329 5321 5313 5304 5296 5287 5278 5269 5260 5251
5508 5508 5506 5506 5504 5503 5501 5499 5496 5494 5491 5488 5483 5479 5474 5468 5462 5456 5449 5441 5433 5424 5415 5406 5396 5387 5377 5368 5358 5349 5339 5331 5322 5314 5306 5298 5289 5281 5273 5265 5256 5248 5240 5232
5500 5499 5498 5496 5493 5491 5490 5487 5484 5480 5476 5472 5467 5462 5456 5450 5444 5436 5428 5419 5410 5401 5391 5381 5372 5362 5351 5341 5332 5323 5314 5306 5298 5290 5282 5274 5266 5258 5250 5243 5236 5229 5221 5214
5490 5488 5487 5485 5483 5480 5477 5474 5470 5465 5460 5455 5450 5444 5438 5431 5423 5414 5404 5395 5385 5375 5366 5356 5346 5336 5326 5316 5307 5298 5289 5281 5273 5265 5258 5250 5243 5236 5229 5222 5216 5209 5204 5198
5479 5477 5475 5473 5470 5466 5462 5458 5454 5449 5443 5438 5431 5424 5416 5407 5399 5389 5380 5371 5361 5351 5340 5330 5320 5310 5300 5290 5280 5272 5263 5255 5248 5240 5233 5226 5220 5214 5208 5203 5198 5193 5188 5184